Regional Weather Roundup
Issued by NWS

Home | Current Version | Previous Version | Graphics & Text | Print | Product List | Glossary On
Versions: 1 2 3 4 5 6 7 8 9 10 11 12 13 14 15 16 17 18 19 20 21 22 23 24 25 26 27 28
000
ASUS45 KBOI 240610
RWRID

IDAHO REGIONAL WEATHER ROUNDUP
NATIONAL WEATHER SERVICE BOISE ID
1200 AM MDT SUN JUL 24 2016

NOTE: "FAIR" INDICATES FEW OR NO CLOUDS BELOW 12000 FEET
WITH NO SIGNIFICANT WEATHER AND/OR OBSTRUCTIONS TO VISIBILITY

IDZ012-014-240700-
SOUTHWEST IDAHO


CITY           SKY/WX    TMP DP  RH WIND       PRES   REMARKS
BOISE          CLEAR     71  36  27 CALM      30.05S
CALDWELL       NOT AVBL
MOUNTAIN HOME  CLEAR     66  32  28 NW8       30.05S
$$

IDZ016-017-240700-
SOUTHCENTRAL IDAHO


CITY           SKY/WX    TMP DP  RH WIND       PRES   REMARKS
BURLEY         CLEAR     64  31  28 SW12      30.09F
JEROME         CLEAR     62  34  35 S7        30.10S
TWIN FALLS     CLEAR     64  23  21 S15       30.11F
$$

IDZ019>023-240700-
SOUTHEAST IDAHO


CITY           SKY/WX    TMP DP  RH WIND       PRES   REMARKS
IDAHO FALLS    CLEAR     69  29  22 S15       30.11R
POCATELLO      CLEAR     68  27  21 S12       30.12R
REXBURG        CLEAR     66  29  24 S9        30.11S
$$

IDZ006-010-011-018-031-032-240700-
CENTRAL IDAHO MOUNTAINS


CITY           SKY/WX    TMP DP  RH WIND       PRES   REMARKS
MCCALL         CLEAR     62  40  44 N7        30.21R
HAILEY         CLEAR     59  36  41 NW9       30.16S
STANLEY          N/A     49  30  48 CALM      30.27R
SALMON         CLEAR     61  43  51 CALM      30.13R
CHALLIS        CLEAR     63  36  36 NW8       30.16R
$$

IDZ002-004-006-007-026-240700-
NORTHERN IDAHO


CITY           SKY/WX    TMP DP  RH WIND       PRES   REMARKS
LEWISTON       CLEAR     69  43  38 S3        30.08S
LOWELL           N/A     61  52  72 CALM      30.13R
COEUR D`ALENE  CLEAR     61  52  72 E3        30.11S
MULLAN PASS    CLEAR     50  40  68 NW5       30.26F
$$




USA.gov is the U.S. government's official web portal to all federal, state and local government web resources and services.